Location: Unspecified
(0.0000°N, 0.0000°E)
Time: 10:22:45
(UTC+00:00)

deb r/b Ablestar - Pass Details

Date: 10 March 2026
Orbit: 827 x 964 km, 67.7° (Epoch: 19 April)

Event Time Altitude Azimuth Distance (km) Brightness Sun altitude
Rises 19:29:50 0° 346° (NNW) 3,446 ? -19.9°
Reaches altitude 10° 19:32:17 10° 348° (NNW) 2,530 ? -20.5°
Maximum altitude 19:38:07 71° 72° (ENE) 956 ? -21.9°
Drops below altitude 10° 19:44:13 10° 155° (SSE) 2,635 ? -23.4°
Enters shadow 19:44:26 - 155° (SSE) 2,719 ? -23.5°
